This is the latest recevied weather packets stored in our database for station/object K7MT-WX. If no packets are shown the sender has not sent any weather packets the latest 10 day(s).
| Time | Temp. | Humidity | Pressure | Rain* | Wind** | Luminosity | Snow |
|---|---|---|---|---|---|---|---|
| 1777512729 | 13.33° C | 35% | 1021.6 hPa | 0 mm | - | - | - |
| 1777511829 | 13.33° C | 32% | 1021.5 hPa | 0 mm | - | - | - |
| 1777510929 | 13.89° C | 32% | 1021.4 hPa | 0 mm | - | - | - |
| 1777510029 | 13.89° C | 35% | 1021.3 hPa | 0 mm | - | - | - |
| 1777509129 | 12.78° C | 37% | 1021.2 hPa | 0 mm | - | - | - |
| 1777508199 | 13.33° C | 37% | 1021.1 hPa | 0 mm | - | - | - |
| 1777507299 | 13.33° C | 36% | 1021.1 hPa | 0 mm | - | - | - |
| 1777506369 | 14.44° C | 33% | 1021 hPa | 0 mm | - | - | - |
| 1777505469 | 14.44° C | 29% | 1020.9 hPa | 0 mm | - | - | - |
| 1777504539 | 13.89° C | 31% | 1020.9 hPa | 0 mm | - | - | - |
| 1777503609 | 13.89° C | 33% | 1020.9 hPa | 0 mm | - | - | - |
| 1777502679 | 15° C | 28% | 1020.8 hPa | 0 mm | - | - | - |
| 1777501779 | 14.44° C | 30% | 1020.8 hPa | 0 mm | - | - | - |
| 1777500849 | 15° C | 30% | 1020.8 hPa | 0 mm | - | - | - |
| 1777499919 | 15° C | 27% | 1020.8 hPa | 0 mm | - | - | - |
| 1777499019 | 15.56° C | 29% | 1020.9 hPa | 0 mm | - | - | - |
| 1777498119 | 15.56° C | 28% | 1021 hPa | 0 mm | - | - | - |
| 1777497219 | 15.56° C | 29% | 1021 hPa | 0 mm | - | - | - |
| 1777496319 | 15° C | 30% | 1021 hPa | 0 mm | - | - | - |
| 1777495419 | 15° C | 27% | 1021 hPa | 0 mm | - | - | - |
| 1777494519 | 15.56° C | 28% | 1020.9 hPa | 0 mm | - | - | - |
| 1777493619 | 15° C | 32% | 1020.9 hPa | 0 mm | - | - | - |
| 1777492719 | 15° C | 33% | 1020.9 hPa | 0 mm | - | - | - |
| 1777491819 | 15° C | 31% | 1021 hPa | 0 mm | - | - | - |
| 1777490919 | 15° C | 34% | 1021 hPa | 0 mm | - | - | - |
* Rain latest hour (hover to see other rain measurements)
** Current wind speed in m/s (hover to see current wind gust speed)